Orbital Elements
The following improved orbital elements by Kenji Muraoka, are
from 116 observations 1983 to 1996, perturbations by 9 Plantes,
Moon and 5 minor planets were taken into account.
The mean residual is +/- 0.91 arc seconds.
Epoch = 2000 Dec. 2.0 TT
T = 2000 Nov. 12.83998 TT
Peri. = 321.96453
Node = 265.44612 (2000.0)
Incl. = 22.16482
q = 0.1395970 AU
e = 0.8901855
|